OneWeb SL0616

operational
NORAD ID: 55157 Int'l Des: 2023-004 Owner: ONEWEBN Country: UK Constellation: oneweb
LEOCIRCULARPOLARONEWEB_TYPE

Über OneWeb SL0616

Beschreibung wird geladen...

Live-Position

3D-Globus wird geladen...

Nächste Überflüge

Höhenverlauf

Altitude vs Time

uPlot chart will show altitude changes over time

Zweizeiliger Elementsatz

1 55157U 23004T 25350.66841420 -.00000031 00000-0 -11205-3 0 9996
2 55157 87.9118 42.1536 0002615 84.6904 275.4526 13.17647052143662
Epoch: 16. Dez. 2025 • Age: 16 hours

Aktueller Status

Höhe 1198.8 km
Geschwindigkeit 7.25 km/s
Subsatellitenpunkt -9.08°S, 22.51°E
Startdatum 10. Jan. 2023
Alter 2.9 years
Typ internet

Technische Details

Klassifizierung Payload
Masse 148.00 kg
Trockenmasse 140.00 kg
Gesamtmasse 148.00 kg
Länge 1.30 m
Durchmesser 1.00 m
Spannweite 5.00 m
Form Trapezoid+2 pan
Hersteller ONEWUS
Bus-Typ ARROW
Phasenstatus In Orbit
Besitzer/Staat ONEWEBN/UK

Große Konstellationen

Loading constellations...